Weather History for West Plains, MO

Change the Weather History Date:

Sunday, October 6, 2013

  Actual Average Record
Temperature  
Mean Temperature 53 °F 60 °F  
Max Temperature 62 °F 73 °F 87 °F (1956)
Min Temperature 44 °F 48 °F 30 °F (1985)
Degree Days  
Heating Degree Days 12 6  
Month to date heating degree days 14 32  
Since 1 July heating degree days 34 74  
Cooling Degree Days 0 1  
Month to date cooling degree days 32 10  
Year to date cooling degree days 1070 1338  
Growing Degree Days 3 (Base 50)    
Moisture  
Dew Point 43 °F    
Average Humidity 73    
Maximum Humidity 100    
Minimum Humidity 46    
Precipitation  
Precipitation 0.00 in 0.11 in 2.38 in (1951)
Month to date precipitation 1.05 0.72  
Year to date precipitation 44.93 34.88  
Sea Level Pressure  
Sea Level Pressure 29.94 in    
Wind  
Wind Speed 7 mph (West)    
Max Wind Speed 18 mph    
Max Gust Speed 26 mph    
Visibility 10 miles    
Events      
T = Trace of Precipitation, MM = Missing Value Source: NWS Daily Summary

Daily Weather History Graph

Daily Weather History Graph

Search for Another Location

Airport:

Trip Planner

Search our weather history database for the weather conditions in past years. The results will help you decide how hot, cold, wet, or windy it might be!

Date:

Astronomy

Oct. 06, 2013 Rise Set
Actual Time 7:07 AM CDT 6:43 PM CDT
Civil Twilight 6:41 AM CDT 7:09 PM CDT
Nautical Twilight 6:11 AM CDT 7:39 PM CDT
Astronomical Twilight 5:41 AM CDT 8:09 PM CDT
Moon 8:48 AM CDT (10/6) 7:46 PM CDT (10/6)
Length of Visible Light 12h 27m
Length of Day
11h 35m
Waxing Crescent, 3% of the Moon is Illuminated
Oct 6
Waxing Crescent
Oct 11
First Quarter
Oct 18
Full
Oct 26
Last Quarter
Nov 3
New

Hourly Weather History & Observations

Time (CDT) Temp. Windchill Dew Point Humidity Pressure Visibility Wind Dir Wind Speed Gust Speed Precip Events Conditions
12:53 AM 50.0 °F - 48.0 °F 93% 29.94 in 10.0 mi West 9.2 mph - N/A   Partly Cloudy
1:53 AM 50.0 °F - 48.0 °F 93% 29.93 in 10.0 mi West 5.8 mph - N/A   Clear
2:53 AM 48.9 °F - 48.0 °F 97% 29.91 in 10.0 mi WSW 3.5 mph - N/A   Clear
3:53 AM 48.0 °F - 46.0 °F 93% 29.91 in 10.0 mi West 4.6 mph - N/A   Clear
4:53 AM 46.9 °F - 45.0 °F 93% 29.94 in 10.0 mi SW 3.5 mph - N/A   Clear
5:53 AM 46.0 °F 43.9 °F 44.1 °F 93% 29.94 in 10.0 mi WSW 4.6 mph - 0.01 in   Clear
6:53 AM 45.0 °F 42.6 °F 43.0 °F 93% 29.94 in 10.0 mi WSW 4.6 mph - N/A   Clear
7:53 AM 46.9 °F - 44.1 °F 90% 29.94 in 10.0 mi WSW 5.8 mph - N/A   Clear
8:53 AM 50.0 °F - 44.1 °F 80% 29.96 in 10.0 mi West 8.1 mph - N/A   Clear
9:53 AM 53.1 °F - 42.1 °F 66% 29.94 in 10.0 mi West 9.2 mph - N/A   Clear
10:53 AM 55.0 °F - 42.1 °F 62% 29.95 in 10.0 mi WNW 9.2 mph 18.4 mph N/A   Partly Cloudy
11:53 AM 57.0 °F - 43.0 °F 59% 29.94 in 10.0 mi West 13.8 mph 17.3 mph N/A   Clear
12:53 PM 59.0 °F - 41.0 °F 51% 29.93 in 10.0 mi West 11.5 mph 21.9 mph N/A   Scattered Clouds
1:53 PM 60.1 °F - 41.0 °F 49% 29.91 in 10.0 mi WNW 15.0 mph 21.9 mph N/A   Clear
2:53 PM 61.0 °F - 39.9 °F 46% 29.91 in 10.0 mi West 16.1 mph 24.2 mph N/A   Scattered Clouds
3:53 PM 57.9 °F - 39.9 °F 51% 29.94 in 10.0 mi WNW 12.7 mph 24.2 mph N/A   Mostly Cloudy
4:53 PM 55.9 °F - 39.0 °F 53% 29.94 in 10.0 mi WNW 11.5 mph 20.7 mph N/A   Partly Cloudy
5:53 PM 55.9 °F - 41.0 °F 57% 29.96 in 10.0 mi West 8.1 mph - N/A   Mostly Cloudy
6:53 PM 52.0 °F - 42.1 °F 69% 29.96 in 10.0 mi West 3.5 mph - N/A   Clear
7:53 PM 48.0 °F - 43.0 °F 83% 29.97 in 10.0 mi West 3.5 mph - N/A   Clear
8:53 PM 48.0 °F - 44.1 °F 86% 29.99 in 10.0 mi Calm Calm - N/A   Mostly Cloudy
9:53 PM 51.1 °F - 44.1 °F 77% 29.97 in 10.0 mi SW 3.5 mph - N/A   Overcast
10:53 PM 52.0 °F - 44.1 °F 74% 29.97 in 10.0 mi SW 4.6 mph - N/A   Overcast
11:53 PM 52.0 °F - 45.0 °F 77% 29.97 in 10.0 mi WSW 5.8 mph - N/A   Overcast